This is the latest recevied weather packets stored in our database for station/object W6JCZ-13. If no packets are shown the sender has not sent any weather packets the latest 10 day(s).
| Time | Temp. | Humidity | Pressure | Rain* | Wind** | Luminosity | Snow |
|---|---|---|---|---|---|---|---|
| 1777440016 | 13.89° C | 77% | 1016.2 hPa | 0 mm | - | - | - |
| 1777439416 | 13.89° C | 77% | 1016.1 hPa | 0 mm | - | - | - |
| 1777438816 | 14.44° C | 76% | 1016.1 hPa | 0 mm | - | - | - |
| 1777438216 | 14.44° C | 74% | 1016.1 hPa | 0 mm | - | - | - |
| 1777437616 | 15° C | 73% | 1016.1 hPa | 0 mm | - | - | - |
| 1777437016 | 15° C | 71% | 1016.2 hPa | 0 mm | - | - | - |
| 1777436416 | 15.56° C | 69% | 1016.1 hPa | 0 mm | - | - | - |
| 1777435816 | 16.11° C | 68% | 1016 hPa | 0 mm | - | - | - |
| 1777435216 | 16.67° C | 66% | 1016 hPa | 0 mm | - | - | - |
| 1777434616 | 17.22° C | 63% | 1015.8 hPa | 0 mm | - | - | - |
| 1777434016 | 17.22° C | 62% | 1015.8 hPa | 0 mm | - | - | - |
| 1777433416 | 17.78° C | 60% | 1015.8 hPa | 0 mm | - | - | - |
| 1777432816 | 18.33° C | 60% | 1015.6 hPa | 0 mm | - | - | - |
| 1777432216 | 18.89° C | 55% | 1015.6 hPa | 0 mm | - | - | - |
| 1777431616 | 19.44° C | 53% | 1015.6 hPa | 0 mm | - | - | - |
| 1777431016 | 20° C | 50% | 1015.4 hPa | 0 mm | - | - | - |
| 1777430416 | 21.11° C | 48% | 1015.3 hPa | 0 mm | - | - | - |
| 1777429816 | 21.67° C | 47% | 1015.3 hPa | 0 mm | - | - | - |
| 1777429216 | 22.22° C | 42% | 1015.3 hPa | 0 mm | - | - | - |
| 1777428616 | 22.22° C | 42% | 1015.3 hPa | 0 mm | - | - | - |
| 1777428016 | 22.78° C | 42% | 1015.3 hPa | 0 mm | - | - | - |
| 1777427416 | 22.78° C | 42% | 1015.3 hPa | 0 mm | - | - | - |
| 1777426816 | 22.78° C | 42% | 1015.4 hPa | 0 mm | - | - | - |
| 1777426216 | 23.33° C | 42% | 1015.4 hPa | 0 mm | - | - | - |
| 1777425617 | 23.33° C | 43% | 1015.4 hPa | 0 mm | - | - | - |
* Rain latest hour (hover to see other rain measurements)
** Current wind speed in m/s (hover to see current wind gust speed)